Home > Weather > Renens > Past weeks

Flag for Switzerland Past Weather in Renens, Vaud, Switzerland — Yesterday and Last 2 Weeks

Now
66 °F

Mild.


Feels Like: 66 °F
Forecast: 57 / 69 °F
Wind: 8 mph from North

Location: Aigle

Current Time: Jun 25, 2016 at 9:40:31 PM

Latest Report: Jun 25, 2016 at 9:00 PM


Visibility: N/A

Pressure: 30.03 "Hg

Humidity: 77%

Dew Point: 59 °F

Location of RenensLocation

Past Weather in Renens — Graph

°F

Renens Temperature Yesterday

Maximum temperature yesterday: 87 °F (at 5:00 PM)
Minimum temperature yesterday: 67 °F (at 6:00 AM)
Average temperature yesterday: 76 °F

High & Low Weather Summary for the Past Weeks

 TemperatureHumidityPressure
High87 °F (Jun 24, 5:00 PM)96% (Jun 13, 6:00 AM)30.27 "Hg (Jun 13, 6:00 AM)
Low50 °F (Jun 20, 6:00 AM)34% (Jun 24, 5:00 PM)29.56 "Hg (Jun 15, 7:00 PM)
Average63 °F80%29.96 "Hg
* Reported Jun 10 8:00 PM — Jun 25 8:00 PM, Renens, Weather by CustomWeather, © 2016

Note: Actual official high and low records may vary slightly from our data, if they occured in-between our weather recording intervals... More about our weather records

Advertising

Renens Weather History for the Previous 24 Hours

Scroll right to see more
 ConditionsComfort  
Time TempWeatherWind HumidityBarometerVisibility
8:00 PM
Sat, Jun 25
67 °FOvercast.2 mph88%30.02 "Hg11 mi
7:00 PM69 °FMild.6 mph86%30.00 "HgN/A
6:00 PM67 °FMild.6 mph89%30.01 "HgN/A
5:00 PM71 °FPartly sunny.1 mph63%29.98 "Hg12 mi
4:00 PM72 °FMild.2 mph75%29.98 "HgN/A
3:00 PM71 °FMild.3 mph76%29.98 "HgN/A
2:00 PM69 °FLight rain. Overcast.5 mph84%29.98 "Hg10 mi
1:00 PM66 °FMild.2 mph91%29.99 "HgN/A
12:00 PM69 °FMild.3 mph74%29.98 "HgN/A
11:00 AM70 °FScattered clouds.7 mph74%29.95 "Hg16 mi
10:00 AM71 °FMild.3 mph72%29.95 "HgN/A
9:00 AM69 °FMild.2 mph84%29.96 "HgN/A
8:00 AM67 °FHeavy rain. Overcast.2 mph86%29.97 "Hg4 mi
7:00 AM66 °FMild.7 mph93%29.99 "HgN/A
6:00 AM67 °FMild.5 mph91%29.96 "HgN/A
4:00 AM71 °FMild.2 mph69%29.95 "HgN/A
3:00 AM71 °FMild.16 mph76%29.94 "HgN/A
2:00 AM67 °FMild.7 mph88%29.93 "HgN/A
1:00 AM66 °FMild.3 mph91%29.96 "HgN/A
12:00 AM68 °FMild.1 mph90%29.95 "HgN/A
11:00 PM
Fri, Jun 24
70 °FMild.8 mph79%29.96 "HgN/A
10:00 PM70 °FMild.7 mph81%29.96 "HgN/A
9:00 PM78 °FWarm.3 mph61%29.91 "HgN/A
Weather by CustomWeather, © 2016

See weather overviewHow to use our weather pages